Time,TemperatureF,DewpointF,PressureIn,WindDirection,WindDirectionDegrees,WindSpeedMPH,WindSpeedGustMPH,Humidity,HourlyPrecipIn,Conditions,Clouds,dailyrainin,SoftwareType,DateUTC
2013-04-29 00:01:00,57.6,41.0,30.19,East,90,0.0,2.0,54,0.00,OVC,,0.00,WeatherDisplay:10.37,2013-04-29 04:01:00,
2013-04-29 00:06:00,57.6,41.0,30.19,East,90,0.0,1.0,54,0.00,OVC,,0.00,WeatherDisplay:10.37,2013-04-29 04:06:00,
2013-04-29 00:11:00,57.4,41.8,30.18,East,85,0.0,1.0,56,0.00,OVC,,0.00,WeatherDisplay:10.37,2013-04-29 04:11:00,
2013-04-29 00:16:00,57.2,41.6,30.18,ENE,76,0.0,2.0,56,0.00,OVC,,0.00,WeatherDisplay:10.37,2013-04-29 04:16:00,
2013-04-29 00:21:00,57.2,42.1,30.19,East,96,0.0,2.0,57,0.00,OVC,,0.00,WeatherDisplay:10.37,2013-04-29 04:21:00,
2013-04-29 00:26:00,56.8,42.2,30.19,SSE,163,0.0,4.0,58,0.00,OVC,,0.00,WeatherDisplay:10.37,2013-04-29 04:26:00,
2013-04-29 00:31:00,56.8,42.7,30.19,South,180,0.0,2.0,59,0.00,OVC,,0.00,WeatherDisplay:10.37,2013-04-29 04:31:00,
2013-04-29 00:40:00,56.5,43.6,30.18,ENE,68,0.0,3.0,62,0.00,OVC,,0.00,WeatherDisplay:10.37,2013-04-29 04:40:00,
2013-04-29 00:45:00,56.5,43.6,30.18,ENE,63,1.0,2.0,62,0.00,OVC,,0.00,WeatherDisplay:10.37,2013-04-29 04:45:00,
2013-04-29 00:50:00,56.3,43.9,30.18,East,87,0.0,1.0,63,0.00,OVC,,0.00,WeatherDisplay:10.37,2013-04-29 04:50:00,
2013-04-29 01:00:00,56.1,44.5,30.18,East,95,1.0,2.0,65,0.00,OVC,,0.00,WeatherDisplay:10.37,2013-04-29 05:00:00,
2013-04-29 01:05:00,56.1,44.9,30.17,East,90,0.0,1.0,66,0.00,OVC,,0.00,WeatherDisplay:10.37,2013-04-29 05:05:00,
2013-04-29 01:10:00,56.1,44.9,30.17,East,90,0.0,2.0,66,0.00,OVC,,0.00,WeatherDisplay:10.37,2013-04-29 05:10:00,
2013-04-29 01:15:00,55.9,44.7,30.17,East,90,0.0,1.0,66,0.00,OVC,,0.00,WeatherDisplay:10.37,2013-04-29 05:15:00,
2013-04-29 01:20:00,55.9,44.7,30.17,East,90,0.0,2.0,66,0.00,OVC,,0.00,WeatherDisplay:10.37,2013-04-29 05:20:00,
2013-04-29 01:30:00,55.6,45.2,30.17,ESE,111,0.0,0.0,68,0.00,OVC,,0.00,WeatherDisplay:10.37,2013-04-29 05:30:00,
2013-04-29 01:35:00,55.4,45.0,30.17,ESE,107,0.0,2.0,68,0.00,OVC,,0.00,WeatherDisplay:10.37,2013-04-29 05:35:00,
2013-04-29 01:40:00,55.4,45.4,30.17,ESE,122,0.0,0.0,69,0.00,OVC,,0.00,WeatherDisplay:10.37,2013-04-29 05:40:00,
2013-04-29 01:45:00,55.3,46.0,30.17,SE,135,0.0,0.0,71,0.00,OVC,,0.00,WeatherDisplay:10.37,2013-04-29 05:45:00,
2013-04-29 01:50:00,55.2,46.0,30.17,SE,135,0.0,0.0,71,0.00,OVC,,0.00,WeatherDisplay:10.37,2013-04-29 05:50:00,
2013-04-29 02:00:00,55.0,45.8,30.17,SE,135,0.0,0.0,71,0.00,OVC,,0.00,WeatherDisplay:10.37,2013-04-29 06:00:00,
2013-04-29 02:05:00,55.0,45.8,30.17,SE,135,0.0,0.0,71,0.00,OVC,,0.00,WeatherDisplay:10.37,2013-04-29 06:05:00,
2013-04-29 02:10:00,55.0,45.8,30.17,SE,135,0.0,0.0,71,0.00,OVC,,0.00,WeatherDisplay:10.37,2013-04-29 06:10:00,
2013-04-29 02:15:00,54.9,46.0,30.17,SE,128,0.0,0.0,72,0.00,OVC,,0.00,WeatherDisplay:10.37,2013-04-29 06:15:00,
2013-04-29 02:20:00,54.9,46.0,30.16,ESE,104,0.0,0.0,72,0.00,OVC,,0.00,WeatherDisplay:10.37,2013-04-29 06:20:00,
2013-04-29 02:30:00,54.7,46.6,30.16,East,90,0.0,0.0,74,0.00,OVC,,0.00,WeatherDisplay:10.37,2013-04-29 06:30:00,
2013-04-29 02:35:00,54.5,46.7,30.16,East,90,0.0,0.0,75,0.00,OVC,,0.00,WeatherDisplay:10.37,2013-04-29 06:35:00,
2013-04-29 02:40:00,54.4,47.0,30.16,East,90,0.0,0.0,76,0.00,OVC,,0.00,WeatherDisplay:10.37,2013-04-29 06:40:00,
2013-04-29 02:45:00,54.1,47.4,30.16,East,100,0.0,0.0,78,0.00,OVC,,0.00,WeatherDisplay:10.37,2013-04-29 06:45:00,
2013-04-29 02:50:00,53.8,47.1,30.15,East,86,0.0,0.0,78,0.00,OVC,,0.00,WeatherDisplay:10.37,2013-04-29 06:50:00,
2013-04-29 02:55:00,53.8,47.4,30.15,ENE,64,1.0,2.0,79,0.00,OVC,,0.00,WeatherDisplay:10.37,2013-04-29 06:55:00,
2013-04-29 03:00:00,53.8,47.4,30.14,ENE,75,1.0,2.0,79,0.00,OVC,,0.00,WeatherDisplay:10.37,2013-04-29 07:00:00,
2013-04-29 03:05:00,53.6,47.6,30.15,ESE,115,1.0,3.0,80,0.00,-RA,,0.00,WeatherDisplay:10.37,2013-04-29 07:05:00,
2013-04-29 03:10:00,53.4,48.1,30.14,ESE,120,0.0,3.0,82,0.00,-RA,,0.00,WeatherDisplay:10.37,2013-04-29 07:10:00,
2013-04-29 03:15:00,53.2,47.9,30.15,ESE,107,1.0,3.0,82,0.00,-RA,,0.00,WeatherDisplay:10.37,2013-04-29 07:15:00,
2013-04-29 03:20:00,53.4,48.1,30.15,ESE,121,0.0,3.0,82,0.00,-RA,,0.00,WeatherDisplay:10.37,2013-04-29 07:20:00,
2013-04-29 03:25:00,53.4,48.1,30.15,ESE,116,0.0,2.0,82,0.00,-RA,,0.00,WeatherDisplay:10.37,2013-04-29 07:25:00,
2013-04-29 03:35:00,53.6,47.9,30.15,SE,135,0.0,1.0,81,0.00,-RA,,0.00,WeatherDisplay:10.37,2013-04-29 07:35:00,
2013-04-29 03:40:00,53.8,48.1,30.15,ESE,107,0.0,2.0,81,0.00,-RA,,0.00,WeatherDisplay:10.37,2013-04-29 07:40:00,
2013-04-29 03:45:00,53.8,48.4,30.15,ENE,66,1.0,2.0,82,0.00,-RA,,0.00,WeatherDisplay:10.37,2013-04-29 07:45:00,
2013-04-29 03:50:00,53.9,48.5,30.15,East,85,0.0,2.0,82,0.00,-RA,,0.00,WeatherDisplay:10.37,2013-04-29 07:50:00,
2013-04-29 03:55:00,53.8,48.7,30.15,East,90,1.0,2.0,83,0.00,-RA,,0.00,WeatherDisplay:10.37,2013-04-29 07:55:00,
2013-04-29 04:00:00,53.6,48.2,30.14,East,90,0.0,2.0,82,0.00,-RA,,0.00,WeatherDisplay:10.37,2013-04-29 08:00:00,
2013-04-29 04:05:00,53.6,48.2,30.14,East,90,0.0,1.0,82,0.00,-RA,,0.00,WeatherDisplay:10.37,2013-04-29 08:05:00,
2013-04-29 04:10:00,53.6,48.2,30.14,East,90,1.0,2.0,82,0.00,-RA,,0.00,WeatherDisplay:10.37,2013-04-29 08:10:00,
2013-04-29 04:15:00,53.6,48.2,30.15,East,95,1.0,3.0,82,0.00,-RA,,0.00,WeatherDisplay:10.37,2013-04-29 08:15:00,
2013-04-29 04:20:00,53.6,48.2,30.14,East,94,1.0,2.0,82,0.00,-RA,,0.00,WeatherDisplay:10.37,2013-04-29 08:20:00,
2013-04-29 04:25:00,53.6,48.2,30.14,East,83,1.0,2.0,82,0.00,-RA,,0.00,WeatherDisplay:10.37,2013-04-29 08:25:00,
2013-04-29 04:30:00,53.6,48.2,30.14,East,93,0.0,2.0,82,0.00,-RA,,0.00,WeatherDisplay:10.37,2013-04-29 08:30:00,
2013-04-29 04:35:00,53.6,48.2,30.14,East,86,1.0,2.0,82,0.00,-RA,,0.00,WeatherDisplay:10.37,2013-04-29 08:35:00,
2013-04-29 04:40:00,53.8,48.7,30.14,ENE,66,0.0,2.0,83,0.00,-RA,,0.00,WeatherDisplay:10.37,2013-04-29 08:40:00,
2013-04-29 04:45:00,53.8,48.7,30.15,ENE,60,0.0,2.0,83,0.00,-RA,,0.00,WeatherDisplay:10.37,2013-04-29 08:45:00,
2013-04-29 04:50:00,53.6,48.9,30.15,ENE,67,1.0,2.0,84,0.00,-RA,,0.00,WeatherDisplay:10.37,2013-04-29 08:50:00,
2013-04-29 04:55:00,53.6,48.9,30.14,East,94,0.0,3.0,84,0.00,-RA,,0.00,WeatherDisplay:10.37,2013-04-29 08:55:00,
2013-04-29 05:05:00,53.6,49.2,30.14,ENE,76,1.0,2.0,85,0.00,-RA,,0.00,WeatherDisplay:10.37,2013-04-29 09:05:00,
2013-04-29 05:10:00,53.6,49.2,30.14,East,82,1.0,2.0,85,0.00,-RA,,0.00,WeatherDisplay:10.37,2013-04-29 09:10:00,
2013-04-29 05:15:00,53.6,49.2,30.14,ENE,76,0.0,2.0,85,0.00,-RA,,0.00,WeatherDisplay:10.37,2013-04-29 09:15:00,
2013-04-29 05:20:00,53.6,49.2,30.14,ENE,62,0.0,2.0,85,0.00,-RA,,0.00,WeatherDisplay:10.37,2013-04-29 09:20:00,
2013-04-29 05:25:00,53.8,49.7,30.14,ENE,66,0.0,2.0,86,0.00,-RA,,0.00,WeatherDisplay:10.37,2013-04-29 09:25:00,
2013-04-29 05:35:00,53.6,49.5,30.14,East,90,0.0,2.0,86,0.00,-RA,,0.00,WeatherDisplay:10.37,2013-04-29 09:35:00,
2013-04-29 05:40:00,53.6,49.5,30.14,East,86,1.0,2.0,86,0.00,-RA,,0.00,WeatherDisplay:10.37,2013-04-29 09:40:00,
2013-04-29 05:45:00,53.6,49.5,30.14,East,92,1.0,2.0,86,0.00,-RA,,0.00,WeatherDisplay:10.37,2013-04-29 09:45:00,
2013-04-29 05:50:00,53.6,49.5,30.14,East,91,1.0,2.0,86,0.00,-RA,,0.00,WeatherDisplay:10.37,2013-04-29 09:50:00,
2013-04-29 05:55:00,53.8,50.0,30.14,East,90,1.0,2.0,87,0.00,-RA,,0.00,WeatherDisplay:10.37,2013-04-29 09:55:00,
2013-04-29 06:05:00,53.8,50.0,30.14,East,85,0.0,1.0,87,0.00,OVC,,0.00,WeatherDisplay:10.37,2013-04-29 10:05:00,
2013-04-29 06:10:00,53.8,50.0,30.15,East,88,1.0,2.0,87,0.00,OVC,,0.00,WeatherDisplay:10.37,2013-04-29 10:10:00,
2013-04-29 06:16:00,53.8,50.0,30.15,ENE,77,1.0,2.0,87,0.00,OVC,,0.00,WeatherDisplay:10.37,2013-04-29 10:16:00,
2013-04-29 06:26:00,53.8,50.0,30.15,East,79,1.0,2.0,87,0.00,OVC,,0.00,WeatherDisplay:10.37,2013-04-29 10:26:00,
2013-04-29 06:31:00,53.8,50.0,30.15,East,80,1.0,2.0,87,0.00,OVC,,0.00,WeatherDisplay:10.37,2013-04-29 10:31:00,
2013-04-29 06:36:00,53.8,50.0,30.15,ENE,71,1.0,3.0,87,0.00,OVC,,0.00,WeatherDisplay:10.37,2013-04-29 10:36:00,
2013-04-29 06:41:00,53.8,50.0,30.16,East,79,1.0,3.0,87,0.00,OVC,,0.00,WeatherDisplay:10.37,2013-04-29 10:41:00,
2013-04-29 06:46:00,53.8,50.0,30.16,East,82,2.0,4.0,87,0.00,OVC,,0.00,WeatherDisplay:10.37,2013-04-29 10:46:00,
2013-04-29 06:56:00,53.8,49.7,30.16,East,86,1.0,3.0,86,0.00,OVC,,0.00,WeatherDisplay:10.37,2013-04-29 10:56:00,
2013-04-29 07:01:00,53.8,49.7,30.16,East,96,1.0,4.0,86,0.00,OVC,,0.00,WeatherDisplay:10.37,2013-04-29 11:01:00,
2013-04-29 07:11:00,53.8,49.7,30.17,East,101,1.0,3.0,86,0.00,OVC,,0.00,WeatherDisplay:10.37,2013-04-29 11:11:00,
2013-04-29 07:16:00,53.8,49.7,30.17,ESE,102,1.0,6.0,86,0.00,OVC,,0.00,WeatherDisplay:10.37,2013-04-29 11:16:00,
2013-04-29 07:21:00,54.0,49.9,30.17,East,98,2.0,4.0,86,0.00,OVC,,0.00,WeatherDisplay:10.37,2013-04-29 11:21:00,
2013-04-29 07:26:00,54.0,49.6,30.16,East,89,1.0,4.0,85,0.00,OVC,,0.00,WeatherDisplay:10.37,2013-04-29 11:26:00,
2013-04-29 07:31:00,54.0,49.6,30.17,ENE,75,1.0,3.0,85,0.00,OVC,,0.00,WeatherDisplay:10.37,2013-04-29 11:31:00,
2013-04-29 07:36:00,54.0,49.6,30.17,East,90,2.0,6.0,85,0.00,OVC,,0.00,WeatherDisplay:10.37,2013-04-29 11:36:00,
2013-04-29 07:41:00,54.0,49.6,30.17,ESE,106,2.0,5.0,85,0.00,OVC,,0.00,WeatherDisplay:10.37,2013-04-29 11:41:00,
2013-04-29 07:46:00,54.1,50.0,30.17,East,90,2.0,5.0,86,0.00,OVC,,0.00,WeatherDisplay:10.37,2013-04-29 11:46:00,
2013-04-29 07:51:00,54.1,49.7,30.17,ENE,76,3.0,6.0,85,0.00,OVC,,0.00,WeatherDisplay:10.37,2013-04-29 11:51:00,
2013-04-29 07:56:00,54.1,49.7,30.17,East,92,2.0,6.0,85,0.00,OVC,,0.00,WeatherDisplay:10.37,2013-04-29 11:56:00,
2013-04-29 08:01:00,54.1,49.7,30.17,East,93,0.0,3.0,85,0.00,OVC,,0.00,WeatherDisplay:10.37,2013-04-29 12:01:00,
2013-04-29 08:11:00,54.3,49.9,30.17,East,95,1.0,5.0,85,0.00,OVC,,0.00,WeatherDisplay:10.37,2013-04-29 12:11:00,
2013-04-29 08:16:00,54.3,49.9,30.17,ESE,104,1.0,5.0,85,0.00,OVC,,0.00,WeatherDisplay:10.37,2013-04-29 12:16:00,
2013-04-29 08:21:00,54.3,49.9,30.17,ENE,76,2.0,5.0,85,0.00,OVC,,0.00,WeatherDisplay:10.37,2013-04-29 12:21:00,
2013-04-29 08:26:00,54.2,49.8,30.17,ENE,70,3.0,6.0,85,0.00,OVC,,0.00,WeatherDisplay:10.37,2013-04-29 12:26:00,
2013-04-29 08:31:00,54.1,49.7,30.17,East,97,1.0,5.0,85,0.00,OVC,,0.00,WeatherDisplay:10.37,2013-04-29 12:31:00,
2013-04-29 08:36:00,54.1,49.7,30.17,ESE,102,2.0,5.0,85,0.00,OVC,,0.00,WeatherDisplay:10.37,2013-04-29 12:36:00,
2013-04-29 08:41:00,54.1,49.7,30.17,East,100,3.0,6.0,85,0.00,OVC,,0.00,WeatherDisplay:10.37,2013-04-29 12:41:00,
2013-04-29 08:46:00,54.1,49.7,30.17,East,95,1.0,3.0,85,0.00,OVC,,0.00,WeatherDisplay:10.37,2013-04-29 12:46:00,
2013-04-29 08:51:00,54.3,49.9,30.17,East,92,3.0,6.0,85,0.00,OVC,,0.00,WeatherDisplay:10.37,2013-04-29 12:51:00,
2013-04-29 08:56:00,54.3,49.9,30.16,East,85,2.0,6.0,85,0.00,OVC,,0.00,WeatherDisplay:10.37,2013-04-29 12:56:00,
2013-04-29 09:01:00,54.3,49.9,30.17,ESE,111,2.0,6.0,85,0.00,OVC,,0.00,WeatherDisplay:10.37,2013-04-29 13:01:00,
2013-04-29 09:11:00,54.5,50.1,30.17,East,89,2.0,8.0,85,0.00,OVC,,0.00,WeatherDisplay:10.37,2013-04-29 13:11:00,
2013-04-29 09:16:00,54.5,50.1,30.16,East,98,2.0,6.0,85,0.00,OVC,,0.00,WeatherDisplay:10.37,2013-04-29 13:16:00,
2013-04-29 09:21:00,54.7,50.3,30.17,ESE,104,3.0,6.0,85,0.00,OVC,,0.00,WeatherDisplay:10.37,2013-04-29 13:21:00,
2013-04-29 09:26:00,54.7,50.3,30.16,East,83,2.0,4.0,85,0.00,OVC,,0.00,WeatherDisplay:10.37,2013-04-29 13:26:00,
2013-04-29 09:31:00,54.7,50.3,30.16,ENE,57,3.0,5.0,85,0.00,OVC,,0.00,WeatherDisplay:10.37,2013-04-29 13:31:00,
2013-04-29 09:41:00,54.9,50.1,30.16,East,89,2.0,7.0,84,0.00,OVC,,0.00,WeatherDisplay:10.37,2013-04-29 13:41:00,
2013-04-29 09:46:00,54.9,50.1,30.16,East,96,2.0,5.0,84,0.00,OVC,,0.00,WeatherDisplay:10.37,2013-04-29 13:46:00,
2013-04-29 09:51:00,54.8,50.1,30.16,ESE,102,1.0,4.0,84,0.00,OVC,,0.00,WeatherDisplay:10.37,2013-04-29 13:51:00,
2013-04-29 09:56:00,54.7,49.9,30.16,ESE,106,1.0,4.0,84,0.00,OVC,,0.00,WeatherDisplay:10.37,2013-04-29 13:56:00,
2013-04-29 10:01:00,54.3,49.9,30.16,East,101,2.0,4.0,85,0.00,OVC,,0.00,WeatherDisplay:10.37,2013-04-29 14:01:00,
2013-04-29 10:11:00,53.8,49.7,30.16,ESE,108,2.0,6.0,86,0.00,-RA,,0.00,WeatherDisplay:10.37,2013-04-29 14:11:00,
2013-04-29 10:16:00,53.6,49.5,30.16,ESE,110,1.0,6.0,86,0.00,-RA,,0.00,WeatherDisplay:10.37,2013-04-29 14:16:00,
2013-04-29 10:21:00,53.6,49.8,30.16,East,99,1.0,4.0,87,0.00,-RA,,0.00,WeatherDisplay:10.37,2013-04-29 14:21:00,
2013-04-29 10:26:00,53.6,50.1,30.16,ESE,118,2.0,5.0,88,0.00,-RA,,0.00,WeatherDisplay:10.37,2013-04-29 14:26:00,
2013-04-29 10:31:00,53.8,50.3,30.16,ESE,116,3.0,6.0,88,0.00,-RA,,0.00,WeatherDisplay:10.37,2013-04-29 14:31:00,
2013-04-29 10:36:00,53.8,50.3,30.16,East,101,2.0,4.0,88,0.00,-RA,,0.00,WeatherDisplay:10.37,2013-04-29 14:36:00,
2013-04-29 10:41:00,53.9,50.8,30.16,East,84,2.0,6.0,89,0.00,-RA,,0.00,WeatherDisplay:10.37,2013-04-29 14:41:00,
2013-04-29 10:46:00,54.0,50.8,30.16,East,82,2.0,5.0,89,0.00,-RA,,0.00,WeatherDisplay:10.37,2013-04-29 14:46:00,
2013-04-29 10:51:00,54.0,50.8,30.16,East,87,2.0,5.0,89,0.00,-RA,,0.00,WeatherDisplay:10.37,2013-04-29 14:51:00,
2013-04-29 10:56:00,54.0,50.8,30.16,ESE,103,1.0,4.0,89,0.00,-RA,,0.00,WeatherDisplay:10.37,2013-04-29 14:56:00,
2013-04-29 11:01:00,53.8,50.6,30.16,ESE,111,2.0,5.0,89,0.00,-RA,,0.00,WeatherDisplay:10.37,2013-04-29 15:01:00,
2013-04-29 11:06:00,53.8,50.9,30.15,East,90,2.0,5.0,90,0.00,-RA,,0.00,WeatherDisplay:10.37,2013-04-29 15:06:00,
2013-04-29 11:11:00,53.8,50.9,30.16,East,80,2.0,8.0,90,0.00,-RA,,0.00,WeatherDisplay:10.37,2013-04-29 15:11:00,
2013-04-29 11:16:00,53.6,51.0,30.15,East,84,2.0,8.0,91,0.00,-RA,,0.00,WeatherDisplay:10.37,2013-04-29 15:16:00,
2013-04-29 11:21:00,53.6,51.0,30.16,East,91,2.0,4.0,91,0.00,-RA,,0.00,WeatherDisplay:10.37,2013-04-29 15:21:00,
2013-04-29 11:26:00,53.4,51.2,30.16,ESE,104,2.0,5.0,92,0.00,-RA,,0.00,WeatherDisplay:10.37,2013-04-29 15:26:00,
2013-04-29 11:32:00,53.4,51.2,30.16,East,87,1.0,3.0,92,0.00,-RA,,0.00,WeatherDisplay:10.37,2013-04-29 15:32:00,
2013-04-29 11:36:00,53.4,51.2,30.16,East,90,2.0,4.0,92,0.00,-RA,,0.00,WeatherDisplay:10.37,2013-04-29 15:36:00,
2013-04-29 11:42:00,53.4,51.2,30.16,ESE,103,1.0,6.0,92,0.00,-RA,,0.00,WeatherDisplay:10.37,2013-04-29 15:42:00,
2013-04-29 11:47:00,53.4,51.2,30.16,ESE,102,2.0,4.0,92,0.00,-RA,,0.00,WeatherDisplay:10.37,2013-04-29 15:47:00,
2013-04-29 11:52:00,53.4,51.2,30.15,ESE,105,2.0,6.0,92,0.00,-RA,,0.00,WeatherDisplay:10.37,2013-04-29 15:52:00,
2013-04-29 11:57:00,53.4,51.4,30.15,ESE,108,2.0,4.0,93,0.00,-RA,,0.00,WeatherDisplay:10.37,2013-04-29 15:57:00,
2013-04-29 12:05:00,53.4,51.4,30.15,East,100,2.0,4.0,93,0.00,-RA,,0.00,WeatherDisplay:10.37,2013-04-29 16:05:00,
2013-04-29 12:11:00,53.4,51.4,30.15,East,100,1.0,2.0,93,0.00,-RA,,0.00,WeatherDisplay:10.37,2013-04-29 16:11:00,
2013-04-29 12:16:00,53.6,51.6,30.15,East,83,2.0,5.0,93,0.00,-RA,,0.00,WeatherDisplay:10.37,2013-04-29 16:16:00,
2013-04-29 12:21:00,53.6,51.6,30.15,ENE,72,1.0,5.0,93,0.00,-RA,,0.00,WeatherDisplay:10.37,2013-04-29 16:21:00,
2013-04-29 12:26:00,53.6,51.6,30.15,East,80,2.0,5.0,93,0.00,-RA,,0.00,WeatherDisplay:10.37,2013-04-29 16:26:00,
2013-04-29 12:31:00,53.8,51.8,30.15,East,92,2.0,5.0,93,0.00,-RA,,0.00,WeatherDisplay:10.37,2013-04-29 16:31:00,
2013-04-29 12:40:00,53.8,51.8,30.14,East,90,1.0,3.0,93,0.00,-RA,,0.00,WeatherDisplay:10.37,2013-04-29 16:40:00,
2013-04-29 12:45:00,53.8,52.1,30.14,East,96,2.0,6.0,94,0.00,-RA,,0.00,WeatherDisplay:10.37,2013-04-29 16:45:00,
2013-04-29 12:50:00,53.8,52.1,30.14,East,92,1.0,4.0,94,0.00,-RA,,0.00,WeatherDisplay:10.37,2013-04-29 16:50:00,
2013-04-29 12:55:00,53.8,52.1,30.14,East,86,1.0,4.0,94,0.00,-RA,,0.00,WeatherDisplay:10.37,2013-04-29 16:55:00,
2013-04-29 13:00:00,53.9,52.2,30.14,East,91,1.0,3.0,94,0.00,-RA,,0.00,WeatherDisplay:10.37,2013-04-29 17:00:00,
2013-04-29 13:05:00,54.0,52.3,30.14,East,83,1.0,4.0,94,0.00,-RA,,0.00,WeatherDisplay:10.37,2013-04-29 17:05:00,
2013-04-29 13:10:00,54.0,52.3,30.14,ESE,103,3.0,5.0,94,0.00,-RA,,0.00,WeatherDisplay:10.37,2013-04-29 17:10:00,
2013-04-29 13:15:00,54.0,52.3,30.14,East,91,2.0,6.0,94,0.00,-RA,,0.00,WeatherDisplay:10.37,2013-04-29 17:15:00,
2013-04-29 13:20:00,54.0,52.0,30.14,East,85,2.0,5.0,93,0.00,-RA,,0.00,WeatherDisplay:10.37,2013-04-29 17:20:00,
2013-04-29 13:30:00,54.0,52.0,30.14,East,99,2.0,7.0,93,0.00,-RA,,0.00,WeatherDisplay:10.37,2013-04-29 17:30:00,
2013-04-29 13:35:00,54.0,52.0,30.14,East,86,2.0,6.0,93,0.00,-RA,,0.00,WeatherDisplay:10.37,2013-04-29 17:35:00,
2013-04-29 13:40:00,54.0,52.0,30.14,East,95,1.0,6.0,93,0.00,-RA,,0.00,WeatherDisplay:10.37,2013-04-29 17:40:00,
2013-04-29 13:45:00,54.1,52.2,30.14,East,101,2.0,5.0,93,0.00,-RA,,0.00,WeatherDisplay:10.37,2013-04-29 17:45:00,
2013-04-29 13:50:00,54.3,52.3,30.14,East,89,3.0,5.0,93,0.00,-RA,,0.00,WeatherDisplay:10.37,2013-04-29 17:50:00,
2013-04-29 13:55:00,54.3,52.6,30.14,East,88,2.0,5.0,94,0.00,-RA,,0.00,WeatherDisplay:10.37,2013-04-29 17:55:00,
2013-04-29 14:00:00,54.3,52.6,30.14,East,101,2.0,5.0,94,0.00,-RA,,0.00,WeatherDisplay:10.37,2013-04-29 18:00:00,
2013-04-29 14:05:00,54.1,52.5,30.14,ESE,103,2.0,4.0,94,0.00,-RA,,0.00,WeatherDisplay:10.37,2013-04-29 18:05:00,
2013-04-29 14:10:00,54.0,52.3,30.14,East,91,1.0,5.0,94,0.00,-RA,,0.00,WeatherDisplay:10.37,2013-04-29 18:10:00,
2013-04-29 14:15:00,53.8,52.1,30.14,ENE,78,2.0,5.0,94,0.00,-RA,,0.00,WeatherDisplay:10.37,2013-04-29 18:15:00,
2013-04-29 14:20:00,54.0,52.3,30.14,ENE,62,2.0,3.0,94,0.00,-RA,,0.00,WeatherDisplay:10.37,2013-04-29 18:20:00,
2013-04-29 14:25:00,54.0,52.3,30.14,East,85,2.0,4.0,94,0.00,-RA,,0.00,WeatherDisplay:10.37,2013-04-29 18:25:00,
2013-04-29 14:30:00,53.9,52.5,30.14,ENE,78,3.0,4.0,95,0.00,-RA,,0.00,WeatherDisplay:10.37,2013-04-29 18:30:00,
2013-04-29 14:35:00,53.8,52.4,30.14,ENE,70,1.0,5.0,95,0.00,-RA,,0.00,WeatherDisplay:10.37,2013-04-29 18:35:00,
2013-04-29 14:40:00,53.8,52.4,30.14,ENE,70,1.0,3.0,95,0.00,-RA,,0.00,WeatherDisplay:10.37,2013-04-29 18:40:00,
2013-04-29 14:45:00,53.6,52.2,30.14,East,79,1.0,6.0,95,0.00,-RA,,0.00,WeatherDisplay:10.37,2013-04-29 18:45:00,
2013-04-29 14:50:00,53.6,52.2,30.14,East,89,3.0,6.0,95,0.00,-RA,,0.00,WeatherDisplay:10.37,2013-04-29 18:50:00,
2013-04-29 14:55:00,53.4,52.6,30.13,ESE,106,2.0,5.0,97,0.00,-RA,,0.00,WeatherDisplay:10.37,2013-04-29 18:55:00,
2013-04-29 15:00:00,53.6,52.5,30.13,ENE,78,2.0,5.0,96,0.00,-RA,,0.00,WeatherDisplay:10.37,2013-04-29 19:00:00,
2013-04-29 15:05:00,53.6,52.5,30.13,ENE,76,2.0,8.0,96,0.00,-RA,,0.00,WeatherDisplay:10.37,2013-04-29 19:05:00,
2013-04-29 15:10:00,53.6,52.5,30.13,East,91,1.0,3.0,96,0.00,-RA,,0.00,WeatherDisplay:10.37,2013-04-29 19:10:00,
2013-04-29 15:15:00,53.6,52.8,30.13,East,95,1.0,4.0,97,0.00,-RA,,0.00,WeatherDisplay:10.37,2013-04-29 19:15:00,
2013-04-29 15:20:00,53.4,52.6,30.13,East,95,3.0,5.0,97,0.00,-RA,,0.00,WeatherDisplay:10.37,2013-04-29 19:20:00,
2013-04-29 15:25:00,53.2,52.4,30.13,East,101,1.0,6.0,97,0.00,-RA,,0.00,WeatherDisplay:10.37,2013-04-29 19:25:00,
2013-04-29 15:30:00,53.2,52.4,30.13,East,84,2.0,5.0,97,0.00,-RA,,0.00,WeatherDisplay:10.37,2013-04-29 19:30:00,
2013-04-29 15:35:00,53.2,52.7,30.12,ENE,70,2.0,5.0,98,0.00,-RA,,0.00,WeatherDisplay:10.37,2013-04-29 19:35:00,
2013-04-29 15:40:00,53.1,52.5,30.12,ENE,75,1.0,6.0,98,0.00,-RA,,0.00,WeatherDisplay:10.37,2013-04-29 19:40:00,
2013-04-29 15:45:00,53.2,52.7,30.12,East,91,1.0,5.0,98,0.00,-RA,,0.00,WeatherDisplay:10.37,2013-04-29 19:45:00,
2013-04-29 15:50:00,53.2,52.7,30.12,East,86,2.0,5.0,98,0.00,-RA,,0.00,WeatherDisplay:10.37,2013-04-29 19:50:00,
2013-04-29 15:55:00,53.2,52.7,30.12,ENE,74,2.0,5.0,98,0.00,-RA,,0.00,WeatherDisplay:10.37,2013-04-29 19:55:00,
2013-04-29 16:00:00,53.2,52.7,30.12,ENE,77,2.0,5.0,98,0.00,-RA,,0.00,WeatherDisplay:10.37,2013-04-29 20:00:00,
2013-04-29 16:05:00,53.2,52.7,30.12,East,85,1.0,3.0,98,0.00,OVC,,0.00,WeatherDisplay:10.37,2013-04-29 20:05:00,
2013-04-29 16:10:00,53.2,52.7,30.12,ENE,69,2.0,4.0,98,0.00,OVC,,0.00,WeatherDisplay:10.37,2013-04-29 20:10:00,
2013-04-29 16:15:00,53.2,52.7,30.12,East,90,2.0,5.0,98,0.00,OVC,,0.00,WeatherDisplay:10.37,2013-04-29 20:15:00,
2013-04-29 16:20:00,53.2,52.7,30.11,East,88,2.0,6.0,98,0.00,OVC,,0.00,WeatherDisplay:10.37,2013-04-29 20:20:00,
2013-04-29 16:25:00,53.2,52.7,30.11,East,82,1.0,4.0,98,0.00,-RA,,0.00,WeatherDisplay:10.37,2013-04-29 20:25:00,
2013-04-29 16:30:00,53.2,52.7,30.11,ENE,75,2.0,5.0,98,0.00,-RA,,0.00,WeatherDisplay:10.37,2013-04-29 20:30:00,
2013-04-29 16:35:00,53.2,52.7,30.12,ENE,74,3.0,6.0,98,0.00,-RA,,0.00,WeatherDisplay:10.37,2013-04-29 20:35:00,
2013-04-29 16:40:00,53.2,52.7,30.12,ENE,62,2.0,6.0,98,0.00,-RA,,0.00,WeatherDisplay:10.37,2013-04-29 20:40:00,
2013-04-29 16:45:00,53.2,52.7,30.12,ENE,64,2.0,4.0,98,0.00,-RA,,0.00,WeatherDisplay:10.37,2013-04-29 20:45:00,
2013-04-29 16:50:00,53.2,52.7,30.12,East,82,2.0,3.0,98,0.00,-RA,,0.00,WeatherDisplay:10.37,2013-04-29 20:50:00,
2013-04-29 16:55:00,53.2,52.7,30.12,ENE,63,1.0,8.0,98,0.00,-RA,,0.00,WeatherDisplay:10.37,2013-04-29 20:55:00,
2013-04-29 17:00:00,53.2,52.7,30.12,ENE,73,1.0,4.0,98,0.00,-RA,,0.00,WeatherDisplay:10.37,2013-04-29 21:00:00,
2013-04-29 17:05:00,53.2,52.7,30.12,East,83,2.0,5.0,98,0.00,-RA,,0.00,WeatherDisplay:10.37,2013-04-29 21:05:00,
2013-04-29 17:10:00,53.2,52.7,30.12,East,84,2.0,6.0,98,0.00,-RA,,0.00,WeatherDisplay:10.37,2013-04-29 21:10:00,
2013-04-29 17:15:00,53.2,52.7,30.12,East,86,1.0,4.0,98,0.00,-RA,,0.00,WeatherDisplay:10.37,2013-04-29 21:15:00,
2013-04-29 17:20:00,53.2,52.7,30.12,East,100,1.0,5.0,98,0.00,-RA,,0.00,WeatherDisplay:10.37,2013-04-29 21:20:00,
2013-04-29 17:25:00,53.2,52.7,30.12,East,91,2.0,4.0,98,0.00,OVC,,0.00,WeatherDisplay:10.37,2013-04-29 21:25:00,
2013-04-29 17:30:00,53.2,52.7,30.12,East,82,1.0,3.0,98,0.00,OVC,,0.00,WeatherDisplay:10.37,2013-04-29 21:30:00,
2013-04-29 17:35:00,53.2,52.7,30.12,East,81,2.0,3.0,98,0.00,OVC,,0.00,WeatherDisplay:10.37,2013-04-29 21:35:00,
2013-04-29 17:45:00,53.2,52.7,30.12,ENE,63,2.0,4.0,98,0.00,-RA,,0.00,WeatherDisplay:10.37,2013-04-29 21:45:00,
2013-04-29 17:50:00,53.1,52.5,30.12,ENE,71,2.0,4.0,98,0.00,-RA,,0.00,WeatherDisplay:10.37,2013-04-29 21:50:00,
2013-04-29 17:55:00,53.1,52.5,30.12,East,87,1.0,3.0,98,0.00,OVC,,0.00,WeatherDisplay:10.37,2013-04-29 21:55:00,
2013-04-29 18:00:00,53.1,52.5,30.12,East,80,2.0,4.0,98,0.00,OVC,,0.00,WeatherDisplay:10.37,2013-04-29 22:00:00,
2013-04-29 18:05:00,53.1,52.5,30.12,East,82,3.0,6.0,98,0.00,OVC,,0.00,WeatherDisplay:10.37,2013-04-29 22:05:00,
2013-04-29 18:10:00,53.1,52.5,30.12,East,91,2.0,4.0,98,0.00,OVC,,0.00,WeatherDisplay:10.37,2013-04-29 22:10:00,
2013-04-29 18:15:00,53.1,52.5,30.12,ESE,103,1.0,4.0,98,0.00,OVC,,0.00,WeatherDisplay:10.37,2013-04-29 22:15:00,
2013-04-29 18:20:00,53.1,52.5,30.12,East,91,1.0,5.0,98,0.00,OVC,,0.00,WeatherDisplay:10.37,2013-04-29 22:20:00,
2013-04-29 18:25:00,53.1,52.5,30.12,ENE,71,1.0,3.0,98,0.00,OVC,,0.00,WeatherDisplay:10.37,2013-04-29 22:25:00,
2013-04-29 18:30:00,53.1,52.5,30.12,East,91,1.0,5.0,98,0.00,OVC,,0.00,WeatherDisplay:10.37,2013-04-29 22:30:00,
2013-04-29 18:36:00,53.1,52.5,30.11,ENE,65,3.0,5.0,98,0.00,OVC,,0.00,WeatherDisplay:10.37,2013-04-29 22:36:00,
2013-04-29 18:41:00,53.1,52.5,30.11,ENE,71,1.0,5.0,98,0.00,OVC,,0.00,WeatherDisplay:10.37,2013-04-29 22:41:00,
2013-04-29 18:46:00,53.1,52.5,30.11,ENE,75,1.0,3.0,98,0.00,-RA,,0.00,WeatherDisplay:10.37,2013-04-29 22:46:00,
2013-04-29 18:51:00,53.1,52.5,30.12,ENE,62,2.0,4.0,98,0.00,-RA,,0.00,WeatherDisplay:10.37,2013-04-29 22:51:00,
2013-04-29 18:56:00,53.1,52.5,30.12,ENE,68,1.0,5.0,98,0.00,OVC,,0.00,WeatherDisplay:10.37,2013-04-29 22:56:00,
2013-04-29 19:01:00,53.1,52.5,30.12,ENE,77,2.0,3.0,98,0.00,OVC,,0.00,WeatherDisplay:10.37,2013-04-29 23:01:00,
2013-04-29 19:06:00,53.1,52.5,30.12,East,81,2.0,3.0,98,0.00,OVC,,0.00,WeatherDisplay:10.37,2013-04-29 23:06:00,
2013-04-29 19:11:00,53.1,52.5,30.12,East,88,1.0,3.0,98,0.00,OVC,,0.00,WeatherDisplay:10.37,2013-04-29 23:11:00,
2013-04-29 19:16:00,52.9,52.3,30.12,ENE,67,1.0,3.0,98,0.00,OVC,,0.00,WeatherDisplay:10.37,2013-04-29 23:16:00,
2013-04-29 19:21:00,52.9,52.3,30.12,ENE,65,1.0,3.0,98,0.00,OVC,,0.00,WeatherDisplay:10.37,2013-04-29 23:21:00,
2013-04-29 19:26:00,52.9,52.3,30.12,ESE,115,1.0,2.0,98,0.00,OVC,,0.00,WeatherDisplay:10.37,2013-04-29 23:26:00,
2013-04-29 19:31:00,52.9,52.3,30.12,ENE,77,2.0,6.0,98,0.00,OVC,,0.00,WeatherDisplay:10.37,2013-04-29 23:31:00,
2013-04-29 19:36:00,52.7,52.2,30.12,ENE,71,2.0,6.0,98,0.00,-RA,,0.00,WeatherDisplay:10.37,2013-04-29 23:36:00,
2013-04-29 19:41:00,52.7,52.2,30.13,East,82,2.0,4.0,98,0.00,-RA,,0.00,WeatherDisplay:10.37,2013-04-29 23:41:00,
2013-04-29 19:46:00,52.5,52.0,30.13,ENE,66,1.0,4.0,98,0.00,OVC,,0.00,WeatherDisplay:10.37,2013-04-29 23:46:00,
2013-04-29 19:51:00,52.5,52.0,30.13,ENE,70,2.0,4.0,98,0.00,OVC,,0.00,WeatherDisplay:10.37,2013-04-29 23:51:00,
2013-04-29 19:56:00,52.5,52.0,30.13,ENE,76,2.0,5.0,98,0.00,OVC,,0.00,WeatherDisplay:10.37,2013-04-29 23:56:00,
2013-04-29 20:01:00,52.4,51.8,30.13,ENE,76,2.0,4.0,98,0.00,OVC,,0.00,WeatherDisplay:10.37,2013-04-30 00:01:00,
2013-04-29 20:06:00,52.3,51.8,30.13,ENE,78,2.0,5.0,98,0.00,OVC,,0.00,WeatherDisplay:10.37,2013-04-30 00:06:00,
2013-04-29 20:11:00,52.3,51.8,30.13,ENE,78,1.0,4.0,98,0.00,OVC,,0.00,WeatherDisplay:10.37,2013-04-30 00:11:00,
2013-04-29 20:16:00,52.3,51.8,30.14,East,87,2.0,4.0,98,0.00,OVC,,0.00,WeatherDisplay:10.37,2013-04-30 00:16:00,
2013-04-29 20:21:00,52.3,51.8,30.14,East,90,1.0,5.0,98,0.00,OVC,,0.00,WeatherDisplay:10.37,2013-04-30 00:21:00,
2013-04-29 20:27:00,52.3,51.8,30.14,ENE,75,1.0,5.0,98,0.00,OVC,,0.00,WeatherDisplay:10.37,2013-04-30 00:27:00,
2013-04-29 20:32:00,52.4,51.9,30.14,East,86,1.0,4.0,98,0.00,OVC,,0.00,WeatherDisplay:10.37,2013-04-30 00:32:00,
2013-04-29 20:37:00,52.5,52.0,30.14,East,85,1.0,5.0,98,0.00,OVC,,0.00,WeatherDisplay:10.37,2013-04-30 00:37:00,
2013-04-29 20:47:00,52.5,52.0,30.14,East,90,2.0,4.0,98,0.00,OVC,,0.00,WeatherDisplay:10.37,2013-04-30 00:47:00,
2013-04-29 20:52:00,52.5,52.0,30.15,East,95,2.0,5.0,98,0.00,OVC,,0.00,WeatherDisplay:10.37,2013-04-30 00:52:00,
2013-04-29 20:57:00,52.3,51.8,30.15,East,99,1.0,4.0,98,0.00,OVC,,0.00,WeatherDisplay:10.37,2013-04-30 00:57:00,
2013-04-29 21:06:00,52.3,51.8,30.15,East,84,2.0,5.0,98,0.00,-RA,,0.00,WeatherDisplay:10.37,2013-04-30 01:06:00,
2013-04-29 21:11:00,52.3,51.8,30.15,East,86,2.0,6.0,98,0.00,-RA,,0.00,WeatherDisplay:10.37,2013-04-30 01:11:00,
2013-04-29 21:16:00,52.3,51.8,30.16,East,85,2.0,4.0,98,0.00,-RA,,0.00,WeatherDisplay:10.37,2013-04-30 01:16:00,
2013-04-29 21:21:00,52.2,51.6,30.16,East,87,1.0,3.0,98,0.00,-RA,,0.00,WeatherDisplay:10.37,2013-04-30 01:21:00,
2013-04-29 21:26:00,52.2,51.6,30.15,East,91,2.0,3.0,98,0.00,-RA,,0.00,WeatherDisplay:10.37,2013-04-30 01:26:00,
2013-04-29 21:31:00,52.2,51.6,30.16,East,94,1.0,3.0,98,0.00,-RA,,0.00,WeatherDisplay:10.37,2013-04-30 01:31:00,
2013-04-29 21:36:00,52.0,51.4,30.16,East,80,1.0,2.0,98,0.00,-RA,,0.00,WeatherDisplay:10.37,2013-04-30 01:36:00,
2013-04-29 21:41:00,52.0,51.4,30.16,ENE,66,1.0,3.0,98,0.00,-RA,,0.00,WeatherDisplay:10.37,2013-04-30 01:41:00,
2013-04-29 21:46:00,52.0,51.4,30.16,ENE,77,2.0,4.0,98,0.00,-RA,,0.00,WeatherDisplay:10.37,2013-04-30 01:46:00,
2013-04-29 21:51:00,52.0,51.4,30.16,East,89,1.0,4.0,98,0.00,-RA,,0.00,WeatherDisplay:10.37,2013-04-30 01:51:00,
2013-04-29 21:56:00,52.0,51.4,30.16,East,92,1.0,4.0,98,0.00,-RA,,0.00,WeatherDisplay:10.37,2013-04-30 01:56:00,
2013-04-29 22:01:00,52.0,51.4,30.16,ENE,73,1.0,6.0,98,0.00,-RA,,0.00,WeatherDisplay:10.37,2013-04-30 02:01:00,
2013-04-29 22:06:00,51.9,51.4,30.16,ENE,76,2.0,5.0,98,0.00,OVC,,0.00,WeatherDisplay:10.37,2013-04-30 02:06:00,
2013-04-29 22:11:00,51.8,51.3,30.16,East,93,1.0,3.0,98,0.00,OVC,,0.00,WeatherDisplay:10.37,2013-04-30 02:11:00,
2013-04-29 22:16:00,51.8,51.3,30.16,East,87,2.0,6.0,98,0.00,OVC,,0.00,WeatherDisplay:10.37,2013-04-30 02:16:00,
2013-04-29 22:21:00,51.8,51.3,30.16,East,84,2.0,6.0,98,0.00,OVC,,0.00,WeatherDisplay:10.37,2013-04-30 02:21:00,
2013-04-29 22:31:00,51.8,51.3,30.16,NE,48,2.0,6.0,98,0.00,OVC,,0.00,WeatherDisplay:10.37,2013-04-30 02:31:00,
2013-04-29 22:36:00,51.8,51.2,30.16,ENE,60,3.0,6.0,98,0.00,OVC,,0.00,WeatherDisplay:10.37,2013-04-30 02:36:00,
2013-04-29 22:46:00,51.6,51.3,30.16,NE,48,3.0,6.0,99,0.00,OVC,,0.00,WeatherDisplay:10.37,2013-04-30 02:46:00,
2013-04-29 22:51:00,51.4,51.2,30.16,ENE,65,3.0,6.0,99,0.00,OVC,,0.00,WeatherDisplay:10.37,2013-04-30 02:51:00,
2013-04-29 22:56:00,51.4,51.2,30.16,East,81,1.0,6.0,99,0.00,OVC,,0.00,WeatherDisplay:10.37,2013-04-30 02:56:00,
2013-04-29 23:01:00,51.3,51.0,30.16,East,83,1.0,4.0,99,0.00,OVC,,0.00,WeatherDisplay:10.37,2013-04-30 03:01:00,
2013-04-29 23:06:00,51.3,51.0,30.16,East,84,1.0,3.0,99,0.00,-RA,,0.00,WeatherDisplay:10.37,2013-04-30 03:06:00,
2013-04-29 23:11:00,51.3,51.0,30.16,ENE,70,1.0,4.0,99,0.00,-RA,,0.00,WeatherDisplay:10.37,2013-04-30 03:11:00,
2013-04-29 23:16:00,51.3,51.0,30.16,ENE,77,2.0,4.0,99,0.00,-RA,,0.00,WeatherDisplay:10.37,2013-04-30 03:16:00,
2013-04-29 23:21:00,51.3,51.0,30.16,East,92,2.0,4.0,99,0.00,-RA,,0.00,WeatherDisplay:10.37,2013-04-30 03:21:00,
2013-04-29 23:26:00,51.3,51.0,30.16,East,87,1.0,5.0,99,0.00,-RA,,0.00,WeatherDisplay:10.37,2013-04-30 03:26:00,
2013-04-29 23:31:00,51.3,51.0,30.16,ENE,74,1.0,3.0,99,0.00,-RA,,0.00,WeatherDisplay:10.37,2013-04-30 03:31:00,
2013-04-29 23:36:00,51.3,51.0,30.16,ENE,60,2.0,3.0,99,0.00,-RA,,0.00,WeatherDisplay:10.37,2013-04-30 03:36:00,
2013-04-29 23:41:00,51.3,51.0,30.16,ENE,65,1.0,4.0,99,0.00,-RA,,0.00,WeatherDisplay:10.37,2013-04-30 03:41:00,
2013-04-29 23:47:00,51.1,50.8,30.16,East,85,1.0,3.0,99,0.00,-RA,,0.00,WeatherDisplay:10.37,2013-04-30 03:47:00,
2013-04-29 23:52:00,51.1,50.8,30.16,ENE,58,2.0,6.0,99,0.00,-RA,,0.00,WeatherDisplay:10.37,2013-04-30 03:52:00,
2013-04-29 23:57:00,51.1,50.8,30.16,NE,40,0.0,6.0,99,0.00,-RA,,0.00,WeatherDisplay:10.37,2013-04-30 03:57:00,